Regional Weather Roundup
Issued by NWS Wakefield, VA

Home | Current Version | Previous Version | Graphics & Text | Print | Product List | Glossary On
Versions: 1 2 3 4 5 6 7 8 9 10 11 12 13 14 15 16 17 18 19 20 21 22 23 24 25 26 27 28
000
ASUS41 KAKQ 210315
RWRAKQ

REGIONAL WEATHER ROUNDUP
NATIONAL WEATHER SERVICE WAKEFIELD VA
1100 PM EDT SUN AUG 20 2017

Note: "fair" indicates few or no clouds below 12,000 feet with no
significant weather and/or obstructions to visibility. * = Denotes
station may not report precipitation (e.g., rain,snow,etc.),
thunder or fog.

VAZ042-051-052>054-056-210400-
NORTHERN VIRGINIA

CITY           SKY/WX    TMP DP  RH WIND       PRES   REMARKS
WASH NATIONAL  CLEAR     77  69  76 S6        30.19R
DULLES         PTCLDY    72  68  87 CALM      30.18R
FORT BELVOIR   MOCLDY    71  68  93 CALM      30.18R
QUANTICO       CLEAR     77  74  90 CALM      30.18R
FREDERICKSBRG* MOCLDY    75  71  87 CALM      30.18R
STAFFORD*      PTCLDY    69  69 100 CALM      30.22S
WARRENTON      MOCLDY    71  67  86 CALM      30.19R
CULPEPER*      PTCLDY    73  71  94 CALM      30.19S
MANASSAS*      CLOUDY    73  70  90 CALM      30.18R
LEESBURG*      CLEAR     75  70  83 CALM      30.20S
WINCHESTER     PTCLDY    68  64  88 CALM      30.20S
FRONT ROYAL*   PTCLDY    72  70  94 CALM      30.18S
LURAY*         CLOUDY    73  72  94 CALM      30.20R
$$

VAZ048-049-060>072-079>083-210400-
CENTRAL AND SOUTH CENTRAL VIRGINIA

CITY           SKY/WX    TMP DP  RH WIND       PRES   REMARKS
RICHMOND       PTCLDY    74  70  87 SE5       30.18R
CHESTERFIELD*  FAIR      77  71  82 E3        30.19R
PETERSBURG*    CLEAR     75  70  85 CALM      30.18S
HANOVER        CLEAR     73  68  84 CALM      30.19R
TAPPAHANNOCK*  CLEAR     71  71 100 CALM      30.19S
QUINTON*       FAIR      74  73  96 CALM      30.18R
CHARLOTTSVILLE CLOUDY    77  71  82 CALM      30.19R
GORDONSVILLE*  PTCLDY    72  71  97 CALM      30.18S
ORANGE*        PTCLDY    70  68  94 CALM      30.19R
LOUISA*        PTCLDY    72  66  83 SE3       30.19R
BUMPASS*       CLOUDY    74  72  92 CALM      30.19R
FARMVILLE*     CLEAR     76  68  75 CALM      30.17R
CREWE*         FAIR      73  69  86 CALM      30.19R
FORT PICKETT*  FAIR     N/A N/A N/A SE3       30.18S
CHASE CITY*    FAIR      77  74  88 CALM      30.18R
CLARKSVILLE*   FAIR      79  75  89 E3        30.17S
SOUTH HILL*    CLEAR     76  76  98 CALM      30.23R
LAWRENCEVILLE* FAIR      77  74  90 CALM      30.18R
EMPORIA*         N/A     75  72  88 CALM      30.19R
$$

VAZ088>098-210400-
SOUTHEAST VIRGINIA

CITY           SKY/WX    TMP DP  RH WIND       PRES   REMARKS
NORFOLK        CLEAR     78  74  87 SE5       30.17R
VIRGINIA BEACH CLEAR     76  72  87 CALM      30.17R
NORFOLK NAVAL  CLEAR     78  72  81 CALM      30.19R
WEST POINT*    CLEAR     72  68  88 CALM      30.20R
SALUDA*        FAIR      73  71  95 S3        30.18R
NEWPORT NEWS   CLEAR     73  72  96 CALM      30.17S
LANGLEY AFB    PTCLDY    78  74  86 S5        30.17R
FORT EUSTIS    CLEAR     77  72  84 E3        30.15R
WILLIAMSBURG*  CLEAR     75  73  94 CALM      30.18S
HR EXEC AP*    FAIR      72  68  88 CALM      30.16R
FRANKLIN*      CLEAR     76  73  92 CALM      30.18R
US460-WAKEFLD  CLEAR     73  72  96 CALM      30.18R
$$

VAZ020-022-025-037-045-210400-
WEST CENTRAL AND SOUTHWEST VIRGINIA

CITY           SKY/WX    TMP DP  RH WIND       PRES   REMARKS
STAUNTON*      MOCLDY    71  67  87 CALM      30.23S
WAYNESBORO*    PTCLDY    75  68  78 S10       30.23R
HOT SPRINGS VA CLEAR     70  57  64 CALM      30.36R
LYNCHBURG      CLEAR     72  66  81 CALM      30.20R
DANVILLE       CLEAR     74  73  97 CALM      30.18R
SOUTH BOSTON*  FAIR      75  73  95 CALM      30.18R
MARTINSVILLE   CLEAR     70  69  95 CALM      30.22S
ROANOKE        PTCLDY    77  67  71 CALM      30.23R
BLACKSBURG     MOCLDY    72  67  85 CALM      30.29S
DUBLIN*        PTCLDY    71  67  88 CALM      30.27R
MARION*        CLOUDY    74  52  45 CALM      30.30S
HILLSVILLE*    CLOUDY    70  64  80 CALM      30.28S
RICHLANDS*     FAIR      73  57  57 CALM      30.28R
WISE*          CLEAR     70  68  94 CALM      30.28S
ABINGDON*      CLEAR     73  69  87 CALM      30.24S
$$

MDZ021>025-VAZ099-100-210400-
SOUTHERN MARYLAND AND THE DELMARVA PENINSULA

CITY           SKY/WX    TMP DP  RH WIND       PRES   REMARKS
PATUXENT RIVER CLEAR     70  68  93 S3        30.18R
BAY BRIDGE APT CLEAR     72  66  83 CALM      30.19R
LEONARDTOWN    CLEAR     70  66  88 CALM      30.20R
DOVER          CLEAR     72  72 100 CALM      30.17S
GEORGETOWN     CLEAR     70  66  87 CALM      30.19R
EASTON         CLEAR     71  66  85 CALM      30.23
CAMBRIDGE      CLEAR     68  66  94 CALM      30.18S
SALISBURY      CLEAR     69  69 100 CALM      30.18R
OCEAN CITY     CLEAR     71  69  93 CALM      30.19R
WALLOPS ISLAND CLEAR     74  73  97 SW5       30.18R
ACCOMACK*      CLEAR     71  71  98 CALM      30.18S
$$

NCZ012>017-030>032-210400-
NORTH CENTRAL AND EASTERN NORTH CAROLINA

CITY           SKY/WX    TMP DP  RH WIND       PRES   REMARKS
ROANOKE RAPIDS FAIR      77  73  88 CALM      30.17R
RALEIGH        PTCLDY    81  70  69 SE5       30.18R
ELIZABETH CITY CLEAR     75  74  96 CALM      30.18R
AHOSKIE*         N/A     76  74  93 CALM      30.18R
EDENTON*       CLEAR     81  76  87 CALM      30.18R
CURRITUCK*     CLEAR     76  73  90 CALM      30.18S
KILL DEVIL HLS CLEAR     77  73  87 CALM      30.16S
MANTEO         CLEAR     75  74  95 CALM      30.18R
CAPE HATTERAS  CLEAR     77  77 100 E3        30.17R
TARBORO*       NOT AVBL
GOLDSBORO      NOT AVBL
WASHINGTON     CLOUDY    80  74  84 S3        30.17S
GREENVILLE     CLEAR     81  73  78 CALM      30.18R
NEW BERN       CLOUDY    76  76 100 CALM      30.18R
WILMINGTON     PTCLDY    78  76  93 CALM      30.15S
$$

VAZ048-210400-
ELSEWHERE

CITY           SKY/WX    TMP DP  RH WIND       PRES   REMARKS
HARRISBURG PA  PTCLDY    72  66  81 E3        30.17R
BALTIMORE      PTCLDY    69  67  93 CALM      30.19R
ANNAPOLIS      CLEAR     76  74  93 CALM      30.18R
ANDREWS AFB    CLEAR     72  65  78 CALM      30.18R
PHILADELPHIA   PTCLDY    76  65  68 W6        30.18R
HENDERSON NC   CLEAR     77  69  76 CALM      30.18R
GREENSBORO     PTCLDY    80  69  69 SE6       30.18R
ROCKY MOUNT    CLEAR     76  74  93 CALM      30.17R
$$

VAZ100-210400-
MARINE

STATION/POSITION TIME  TEMP    WIND        PRES    WAVE   SWELL
                       AIR SEA DIR/SP/G            HT/PER HT/PER
                 (UTC) (F)     (DEG/KT/KT) (MB)    (FT/S) (FT/S)
BRANDYWINE LGT   0242   76     210/  8/  9 1022.3R
CAPE MAY NJ      0248   75 79  220/  5/  6 1021.5R
LEWES DE         0242   74 80  210/  3/  5 1021.7R
15NM E FENWICK I 0250   77 78  200/  6/  6 1022.4R   1/ 8   2/ 8
OCEAN-CITY-INLET 0248   77 78  200/  4/  7 1022.4R
WACHAPREAGUE VA  0248   78 84  220/  5/  8 1021.9R
THOMAS POINT MD  0300   80 81  140/  6/  7   N/A
GOOSES REEF MD   0300   81 80  180/  6/  6 1022.8
COVE POINT MD    0248   78     210/  2/  3 1022.6R
SOLOMONS ISLAND  0242   77 82  200/  2/  2   N/A
BISHOPS HEAD MD  0248   81 84  110/  2/  3 1022.1R
PINEY POINT MD   0248          170/  5/  6   N/A
POTOMAC MD       0300   81 83  170/  4/  6 1021.3    0
CAMBRIDGE MD     0248   73 83              1022.9R
LEWISETTA VA     0248   78 85  200/  4/  4 1021.8R
RAPPAHANNOCK LGT 0248          160/  6/  8 1022.5R
STINGRAY PT      0300   80 82  190/ 10/ 12 1022.1
YORK RVR RNG VA  0248   80     160/  8/  9 1022.2R
YORKTOWN VA      0248   78 84  190/  2/  3 1021.5R
JAMESTOWN VA     0300      85   90/  4/  4   N/A     0
DOMINION TERM VA 0248   80     140/  7/  9 1021.8R
KIPTOPEKE VA     0248      81  150/  4/  5   N/A
CHES BAY BRIDGE  0248   79 79  170/  5/  6 1021.6R
CAPE HENRY VA    0248   78     150/  4/  5   N/A
WILLOUBY STN VA  0242   79     140/  6/  7 1021.7R
S CRANEY ISL VA  0248   80     140/  6/  9 1021.5R
CAPE HENRY BUOY  0300      82                N/A     2/ 8
1ST LANDING BUOY 0300   79 80              1021.6    1
64NM E OF VA BCH 0250   78 79  100/  6/  6 1022.2R   2/ 8   2/ 8
DUCK PIER NC     0248   79 80  120/  7/  8 1021.3R
44100 DUCK FRF   0235      81                N/A     2/ 9
44056 DUCK FRF   0300      79                N/A     2/ 9
OREGON INLET NC  0242   78 83   60/  2/  4 1021.5R
HATTERAS NC      0248   80 80   90/  3/  3 1021.4R
DIAMOND SHLS NC  0250   84 85  160/  4/  4 1021.2R   2/ 8   2/ 8
CAPE LOOKOUT NC  0300   81     120/  6/  6 1020.8S
$$




USA.gov is the U.S. government's official web portal to all federal, state and local government web resources and services.